This is the latest recevied weather packets stored in our database for station/object W4CKA. If no packets are shown the sender has not sent any weather packets the latest 10 day(s).
| Time | Temp. | Humidity | Pressure | Rain* | Wind** | Luminosity | Snow |
|---|---|---|---|---|---|---|---|
| 1787779812 | 26.67° C | 75% | 1057.5 hPa | 0 mm | - | 179 W/m² | - |
| 1787779211 | 26.67° C | 74% | 1057.5 hPa | 0 mm | - | 161 W/m² | - |
| 1787778607 | 27.22° C | 73% | 1057.7 hPa | 0 mm | - | 176 W/m² | - |
| 1787778003 | 27.78° C | 72% | 1057.8 hPa | 0 mm | - | 179 W/m² | - |
| 1787777400 | 29.44° C | 66% | 1057.9 hPa | 0 mm | - | 347 W/m² | - |
| 1787776798 | 28.89° C | 69% | 1057.9 hPa | 0 mm | - | 259 W/m² | - |
| 1787776195 | 28.89° C | 68% | 1058 hPa | 0 mm | - | 330 W/m² | - |
| 1787775591 | 29.44° C | 67% | 1057.9 hPa | 0 mm | - | 221 W/m² | - |
| 1787774989 | 29.44° C | 63% | 1058.2 hPa | 0 mm | - | 422 W/m² | - |
| 1787774388 | 29.44° C | 61% | 1058.4 hPa | 0 mm | - | 377 W/m² | - |
| 1787773787 | 28.89° C | 63% | 1058.4 hPa | 0 mm | - | 431 W/m² | - |
| 1787773184 | 28.89° C | 66% | 1058.2 hPa | 0 mm | - | 302 W/m² | - |
| 1787772579 | 29.44° C | 57% | 1058.6 hPa | 0 mm | - | 389 W/m² | - |
| 1787771977 | 30° C | 61% | 1058.8 hPa | 0 mm | - | 486 W/m² | - |
| 1787771378 | 29.44° C | 58% | 1058.9 hPa | 0 mm | - | 502 W/m² | - |
| 1787770772 | 30.56° C | 56% | 1059.3 hPa | 0 mm | - | 489 W/m² | - |
| 1787770171 | 30.56° C | 64% | 1059.2 hPa | 0 mm | - | 453 W/m² | - |
| 1787769571 | 30° C | 57% | 1059.3 hPa | 0 mm | - | 596 W/m² | - |
| 1787768969 | 30° C | 57% | 1059.4 hPa | 0 mm | - | 568 W/m² | - |
| 1787768367 | 28.89° C | 64% | 1059.5 hPa | 0 mm | - | 558 W/m² | - |
| 1787767763 | 30° C | 63% | 1059.4 hPa | 0 mm | - | 495 W/m² | - |
| 1787767162 | 29.44° C | 63% | 1059.4 hPa | 0 mm | - | 640 W/m² | - |
| 1787766562 | 29.44° C | 61% | 1059.4 hPa | 0 mm | - | 615 W/m² | - |
| 1787765961 | 29.44° C | 62% | 1059.3 hPa | 0 mm | - | 637 W/m² | - |
| 1787765359 | 28.33° C | 70% | 1059.5 hPa | 0 mm | - | 586 W/m² | - |
* Rain latest hour (hover to see other rain measurements)
** Current wind speed in m/s (hover to see current wind gust speed)